owner,sensor,date,latitude,longitude,vertical_datum,sea_water_practical_salinity,qcFlag 
SCCF RECON,ioos:station:SCCF:56:1,2017-05-01T00:00:00Z,26.4645,-82.1044,1.711,35.46,1111122 
SCCF RECON,ioos:station:SCCF:56:1,2017-05-01T01:00:00Z,26.4645,-82.1044,1.57,35.46,1111122 
SCCF RECON,ioos:station:SCCF:56:1,2017-05-01T02:00:00Z,26.4645,-82.1044,1.427,35.48,1111122 
SCCF RECON,ioos:station:SCCF:56:1,2017-05-01T03:00:00Z,26.4645,-82.1044,1.292,35.52,1111122 
SCCF RECON,ioos:station:SCCF:56:1,2017-05-01T04:00:00Z,26.4645,-82.1044,1.185,35.58,1111122 
SCCF RECON,ioos:station:SCCF:56:1,2017-05-01T05:00:00Z,26.4645,-82.1044,1.14,35.63,1111122 
SCCF RECON,ioos:station:SCCF:56:1,2017-05-01T06:00:00Z,26.4645,-82.1044,1.25,35.54,1111122 
SCCF RECON,ioos:station:SCCF:56:1,2017-05-01T07:00:00Z,26.4645,-82.1044,1.41,35.52,1111122 
SCCF RECON,ioos:station:SCCF:56:1,2017-05-01T08:00:00Z,26.4645,-82.1044,1.53,35.49,1111122 
SCCF RECON,ioos:station:SCCF:56:1,2017-05-01T09:00:00Z,26.4645,-82.1044,1.633,35.53,1111122 
SCCF RECON,ioos:station:SCCF:56:1,2017-05-01T10:00:00Z,26.4645,-82.1044,1.705,35.52,1111122 
SCCF RECON,ioos:station:SCCF:56:1,2017-05-01T11:00:00Z,26.4645,-82.1044,1.73,35.53,1111122 
SCCF RECON,ioos:station:SCCF:56:1,2017-05-01T12:00:00Z,26.4645,-82.1044,1.76,35.54,1111122 
SCCF RECON,ioos:station:SCCF:56:1,2017-05-01T13:00:00Z,26.4645,-82.1044,1.762,35.52,1111122 
SCCF RECON,ioos:station:SCCF:56:1,2017-05-01T14:00:00Z,26.4645,-82.1044,1.7,35.55,1111122 
SCCF RECON,ioos:station:SCCF:56:1,2017-05-01T15:00:00Z,26.4645,-82.1044,1.663,35.55,1111122 
SCCF RECON,ioos:station:SCCF:56:1,2017-05-01T16:00:00Z,26.4645,-82.1044,1.658,35.55,1111122 
SCCF RECON,ioos:station:SCCF:56:1,2017-05-01T17:00:00Z,26.4645,-82.1044,1.65,35.56,1111122 
SCCF RECON,ioos:station:SCCF:56:1,2017-05-01T18:00:00Z,26.4645,-82.1044,1.719,35.58,1111122 
SCCF RECON,ioos:station:SCCF:56:1,2017-05-01T19:00:00Z,26.4645,-82.1044,1.824,35.54,1111122 
SCCF RECON,ioos:station:SCCF:56:1,2017-05-01T20:00:00Z,26.4645,-82.1044,1.869,35.54,1111122 
SCCF RECON,ioos:station:SCCF:56:1,2017-05-01T21:00:00Z,26.4645,-82.1044,1.88,35.55,1111122 
SCCF RECON,ioos:station:SCCF:56:1,2017-05-01T22:00:00Z,26.4645,-82.1044,1.849,35.59,1111122 
SCCF RECON,ioos:station:SCCF:56:1,2017-05-01T23:00:00Z,26.4645,-82.1044,1.784,35.58,1111122 
SCCF RECON,ioos:station:SCCF:56:1,2017-05-02T00:00:00Z,26.4645,-82.1044,1.7,35.61,1111122 
SCCF RECON,ioos:station:SCCF:56:1,2017-05-02T01:00:00Z,26.4645,-82.1044,1.563,35.64,1111122 
SCCF RECON,ioos:station:SCCF:56:1,2017-05-02T02:00:00Z,26.4645,-82.1044,1.43,35.68,1111122 
SCCF RECON,ioos:station:SCCF:56:1,2017-05-02T03:00:00Z,26.4645,-82.1044,1.34,35.72,1111122 
SCCF RECON,ioos:station:SCCF:56:1,2017-05-02T04:00:00Z,26.4645,-82.1044,1.264,35.74,1111122 
SCCF RECON,ioos:station:SCCF:56:1,2017-05-02T05:00:00Z,26.4645,-82.1044,1.209,35.8,1111122 
SCCF RECON,ioos:station:SCCF:56:1,2017-05-02T06:00:00Z,26.4645,-82.1044,1.2,35.87,1111122 
SCCF RECON,ioos:station:SCCF:56:1,2017-05-02T07:00:00Z,26.4645,-82.1044,1.315,35.8,1111122 
SCCF RECON,ioos:station:SCCF:56:1,2017-05-02T08:00:00Z,26.4645,-82.1044,1.43,35.75,1111122 
SCCF RECON,ioos:station:SCCF:56:1,2017-05-02T09:00:00Z,26.4645,-82.1044,1.56,35.72,1111122 
SCCF RECON,ioos:station:SCCF:56:1,2017-05-02T10:00:00Z,26.4645,-82.1044,1.668,35.66,1111122 
SCCF RECON,ioos:station:SCCF:56:1,2017-05-02T11:00:00Z,26.4645,-82.1044,1.702,34.74,1111122 
SCCF RECON,ioos:station:SCCF:56:1,2017-05-02T12:00:00Z,26.4645,-82.1044,1.76,34.53,1111122 
SCCF RECON,ioos:station:SCCF:56:1,2017-05-02T13:00:00Z,26.4645,-82.1044,1.74,35.05,1111122 
SCCF RECON,ioos:station:SCCF:56:1,2017-05-02T14:00:00Z,26.4645,-82.1044,1.7,34.97,1111122 
SCCF RECON,ioos:station:SCCF:56:1,2017-05-02T15:00:00Z,26.4645,-82.1044,1.67,34.59,1111122 
SCCF RECON,ioos:station:SCCF:56:1,2017-05-02T16:00:00Z,26.4645,-82.1044,1.65,34.9,1111122 
SCCF RECON,ioos:station:SCCF:56:1,2017-05-02T17:00:00Z,26.4645,-82.1044,1.63,34.9,1111122 
SCCF RECON,ioos:station:SCCF:56:1,2017-05-02T18:00:00Z,26.4645,-82.1044,1.65,35.09,1111122 
SCCF RECON,ioos:station:SCCF:56:1,2017-05-02T19:00:00Z,26.4645,-82.1044,1.671,34.99,1111122 
SCCF RECON,ioos:station:SCCF:56:1,2017-05-02T20:00:00Z,26.4645,-82.1044,1.711,35.16,1111122 
SCCF RECON,ioos:station:SCCF:56:1,2017-05-02T21:00:00Z,26.4645,-82.1044,1.76,35.06,1111122 
SCCF RECON,ioos:station:SCCF:56:1,2017-05-02T22:00:00Z,26.4645,-82.1044,1.79,35.02,1111122 
SCCF RECON,ioos:station:SCCF:56:1,2017-05-02T23:00:00Z,26.4645,-82.1044,1.79,35.04,1111122 
SCCF RECON,ioos:station:SCCF:56:1,2017-05-03T00:00:00Z,26.4645,-82.1044,1.77,35.04,1111122 
SCCF RECON,ioos:station:SCCF:56:1,2017-05-03T01:00:00Z,26.4645,-82.1044,1.72,34.85,1111122 
SCCF RECON,ioos:station:SCCF:56:1,2017-05-03T02:00:00Z,26.4645,-82.1044,1.64,34.68,1111122 
SCCF RECON,ioos:station:SCCF:56:1,2017-05-03T03:00:00Z,26.4645,-82.1044,1.51,34.6,1111122 
SCCF RECON,ioos:station:SCCF:56:1,2017-05-03T04:00:00Z,26.4645,-82.1044,1.383,34.36,1111122 
SCCF RECON,ioos:station:SCCF:56:1,2017-05-03T05:00:00Z,26.4645,-82.1044,1.27,34.87,1111122 
SCCF RECON,ioos:station:SCCF:56:1,2017-05-03T06:00:00Z,26.4645,-82.1044,1.18,34.14,1111122 
SCCF RECON,ioos:station:SCCF:56:1,2017-05-03T07:00:00Z,26.4645,-82.1044,1.19,34.12,1111122 
SCCF RECON,ioos:station:SCCF:56:1,2017-05-03T08:00:00Z,26.4645,-82.1044,1.268,34.27,1111122 
SCCF RECON,ioos:station:SCCF:56:1,2017-05-03T09:00:00Z,26.4645,-82.1044,1.41,34.97,1111122 
SCCF RECON,ioos:station:SCCF:56:1,2017-05-03T10:00:00Z,26.4645,-82.1044,1.51,35.08,1111122 
SCCF RECON,ioos:station:SCCF:56:1,2017-05-03T11:00:00Z,26.4645,-82.1044,1.587,35.04,1111122 
SCCF RECON,ioos:station:SCCF:56:1,2017-05-03T12:00:00Z,26.4645,-82.1044,1.67,35.1,1111122 
SCCF RECON,ioos:station:SCCF:56:1,2017-05-03T13:00:00Z,26.4645,-82.1044,1.72,35.11,1111122 
SCCF RECON,ioos:station:SCCF:56:1,2017-05-03T14:00:00Z,26.4645,-82.1044,1.722,35.06,1111122 
SCCF RECON,ioos:station:SCCF:56:1,2017-05-03T15:00:00Z,26.4645,-82.1044,1.686,35.06,1111122 
SCCF RECON,ioos:station:SCCF:56:1,2017-05-03T16:00:00Z,26.4645,-82.1044,1.658,35.0,1111122 
SCCF RECON,ioos:station:SCCF:56:1,2017-05-03T17:00:00Z,26.4645,-82.1044,1.57,34.98,1111122 
SCCF RECON,ioos:station:SCCF:56:1,2017-05-03T18:00:00Z,26.4645,-82.1044,1.51,34.98,1111122 
SCCF RECON,ioos:station:SCCF:56:1,2017-05-03T19:00:00Z,26.4645,-82.1044,1.47,34.93,1111122 
SCCF RECON,ioos:station:SCCF:56:1,2017-05-03T20:00:00Z,26.4645,-82.1044,1.5,34.93,1111122 
SCCF RECON,ioos:station:SCCF:56:1,2017-05-03T21:00:00Z,26.4645,-82.1044,1.677,34.99,1111122 
SCCF RECON,ioos:station:SCCF:56:1,2017-05-03T22:00:00Z,26.4645,-82.1044,1.707,34.91,1111122 
SCCF RECON,ioos:station:SCCF:56:1,2017-05-03T23:00:00Z,26.4645,-82.1044,1.72,34.92,1111122 
SCCF RECON,ioos:station:SCCF:56:1,2017-05-04T00:00:00Z,26.4645,-82.1044,1.749,34.89,1111122 
SCCF RECON,ioos:station:SCCF:56:1,2017-05-04T01:00:00Z,26.4645,-82.1044,1.753,34.89,1111122 
SCCF RECON,ioos:station:SCCF:56:1,2017-05-04T02:00:00Z,26.4645,-82.1044,1.75,34.91,1111122 
SCCF RECON,ioos:station:SCCF:56:1,2017-05-04T03:00:00Z,26.4645,-82.1044,1.7,34.99,1111122 
SCCF RECON,ioos:station:SCCF:56:1,2017-05-04T04:00:00Z,26.4645,-82.1044,1.597,34.99,1111122 
SCCF RECON,ioos:station:SCCF:56:1,2017-05-04T05:00:00Z,26.4645,-82.1044,2.061,-9999.0,1111122 
SCCF RECON,ioos:station:SCCF:56:1,2017-05-04T06:00:00Z,26.4645,-82.1044,1.384,34.88,1111122 
SCCF RECON,ioos:station:SCCF:56:1,2017-05-04T07:00:00Z,26.4645,-82.1044,1.26,34.81,1111122 
SCCF RECON,ioos:station:SCCF:56:1,2017-05-04T08:00:00Z,26.4645,-82.1044,1.247,34.8,1111122 
SCCF RECON,ioos:station:SCCF:56:1,2017-05-04T09:00:00Z,26.4645,-82.1044,1.32,34.85,1111122 
SCCF RECON,ioos:station:SCCF:56:1,2017-05-04T10:00:00Z,26.4645,-82.1044,1.433,34.97,1111122 
SCCF RECON,ioos:station:SCCF:56:1,2017-05-04T11:00:00Z,26.4645,-82.1044,1.541,35.03,1111122 
SCCF RECON,ioos:station:SCCF:56:1,2017-05-04T12:00:00Z,26.4645,-82.1044,1.739,36.41,1111122 
SCCF RECON,ioos:station:SCCF:56:1,2017-05-04T13:00:00Z,26.4645,-82.1044,1.75,35.09,1111122 
SCCF RECON,ioos:station:SCCF:56:1,2017-05-04T14:00:00Z,26.4645,-82.1044,1.78,35.08,1111122 
SCCF RECON,ioos:station:SCCF:56:1,2017-05-04T15:00:00Z,26.4645,-82.1044,1.84,35.01,1111122 
SCCF RECON,ioos:station:SCCF:56:1,2017-05-09T17:00:00Z,26.4645,-82.1044,1.0,-9999.0,1111122 
SCCF RECON,ioos:station:SCCF:56:1,2017-05-09T18:00:00Z,26.4645,-82.1044,1.0,-9999.0,1111122 
SCCF RECON,ioos:station:SCCF:56:1,2017-05-09T19:00:00Z,26.4645,-82.1044,1.67,35.75,1111122 
SCCF RECON,ioos:station:SCCF:56:1,2017-05-09T20:00:00Z,26.4645,-82.1044,1.53,35.76,1111122 
SCCF RECON,ioos:station:SCCF:56:1,2017-05-09T21:00:00Z,26.4645,-82.1044,1.41,35.79,1111122 
SCCF RECON,ioos:station:SCCF:56:1,2017-05-09T22:00:00Z,26.4645,-82.1044,1.3,35.79,1111122 
SCCF RECON,ioos:station:SCCF:56:1,2017-05-09T23:00:00Z,26.4645,-82.1044,1.19,35.77,1111122 
SCCF RECON,ioos:station:SCCF:56:1,2017-05-10T00:00:00Z,26.4645,-82.1044,1.11,35.76,1111122 
SCCF RECON,ioos:station:SCCF:56:1,2017-05-10T01:00:00Z,26.4645,-82.1044,1.13,35.77,1111122 
SCCF RECON,ioos:station:SCCF:56:1,2017-05-10T02:00:00Z,26.4645,-82.1044,1.281,35.83,1111122 
SCCF RECON,ioos:station:SCCF:56:1,2017-05-10T03:00:00Z,26.4645,-82.1044,1.449,35.94,1111122 
SCCF RECON,ioos:station:SCCF:56:1,2017-05-10T04:00:00Z,26.4645,-82.1044,1.57,35.99,1111122 
SCCF RECON,ioos:station:SCCF:56:1,2017-05-10T05:00:00Z,26.4645,-82.1044,1.668,35.94,1111122 
SCCF RECON,ioos:station:SCCF:56:1,2017-05-10T06:00:00Z,26.4645,-82.1044,1.71,35.82,1111122 
SCCF RECON,ioos:station:SCCF:56:1,2017-05-10T07:00:00Z,26.4645,-82.1044,1.676,35.79,1111122 
SCCF RECON,ioos:station:SCCF:56:1,2017-05-10T08:00:00Z,26.4645,-82.1044,1.57,35.8,1111122 
SCCF RECON,ioos:station:SCCF:56:1,2017-05-10T09:00:00Z,26.4645,-82.1044,1.48,35.83,1111122 
SCCF RECON,ioos:station:SCCF:56:1,2017-05-10T10:00:00Z,26.4645,-82.1044,1.42,35.84,1111122 
SCCF RECON,ioos:station:SCCF:56:1,2017-05-10T11:00:00Z,26.4645,-82.1044,1.37,35.85,1111122 
SCCF RECON,ioos:station:SCCF:56:1,2017-05-10T12:00:00Z,26.4645,-82.1044,1.342,35.85,1111122 
SCCF RECON,ioos:station:SCCF:56:1,2017-05-10T13:00:00Z,26.4645,-82.1044,1.42,35.84,1111122 
SCCF RECON,ioos:station:SCCF:56:1,2017-05-10T14:00:00Z,26.4645,-82.1044,1.57,35.86,1111122 
SCCF RECON,ioos:station:SCCF:56:1,2017-05-10T15:00:00Z,26.4645,-82.1044,1.7,35.78,1111122 
SCCF RECON,ioos:station:SCCF:56:1,2017-05-10T16:00:00Z,26.4645,-82.1044,1.8,35.71,1111122 
SCCF RECON,ioos:station:SCCF:56:1,2017-05-10T17:00:00Z,26.4645,-82.1044,1.86,35.66,1111122 
SCCF RECON,ioos:station:SCCF:56:1,2017-05-10T18:00:00Z,26.4645,-82.1044,1.86,35.59,1111122 
SCCF RECON,ioos:station:SCCF:56:1,2017-05-10T19:00:00Z,26.4645,-82.1044,1.76,35.63,1111122 
SCCF RECON,ioos:station:SCCF:56:1,2017-05-10T20:00:00Z,26.4645,-82.1044,1.616,35.72,1111122 
SCCF RECON,ioos:station:SCCF:56:1,2017-05-10T21:00:00Z,26.4645,-82.1044,1.48,35.77,1111122 
SCCF RECON,ioos:station:SCCF:56:1,2017-05-10T22:00:00Z,26.4645,-82.1044,1.369,35.82,1111122 
SCCF RECON,ioos:station:SCCF:56:1,2017-05-10T23:00:00Z,26.4645,-82.1044,1.26,35.86,1111122 
SCCF RECON,ioos:station:SCCF:56:1,2017-05-11T00:00:00Z,26.4645,-82.1044,1.17,35.91,1111122 
SCCF RECON,ioos:station:SCCF:56:1,2017-05-11T01:00:00Z,26.4645,-82.1044,1.14,35.95,1111122 
SCCF RECON,ioos:station:SCCF:56:1,2017-05-11T02:00:00Z,26.4645,-82.1044,1.23,35.96,1111122 
SCCF RECON,ioos:station:SCCF:56:1,2017-05-11T03:00:00Z,26.4645,-82.1044,1.401,35.89,1111122 
SCCF RECON,ioos:station:SCCF:56:1,2017-05-11T04:00:00Z,26.4645,-82.1044,1.55,35.99,1111122 
SCCF RECON,ioos:station:SCCF:56:1,2017-05-11T05:00:00Z,26.4645,-82.1044,1.645,35.81,1111122 
SCCF RECON,ioos:station:SCCF:56:1,2017-05-11T06:00:00Z,26.4645,-82.1044,1.73,35.72,1111122 
SCCF RECON,ioos:station:SCCF:56:1,2017-05-11T07:00:00Z,26.4645,-82.1044,1.74,35.64,1111122 
SCCF RECON,ioos:station:SCCF:56:1,2017-05-11T08:00:00Z,26.4645,-82.1044,1.684,35.69,1111122 
SCCF RECON,ioos:station:SCCF:56:1,2017-05-11T09:00:00Z,26.4645,-82.1044,1.589,35.67,1111122 
SCCF RECON,ioos:station:SCCF:56:1,2017-05-11T10:00:00Z,26.4645,-82.1044,1.51,35.7,1111122 
SCCF RECON,ioos:station:SCCF:56:1,2017-05-11T11:00:00Z,26.4645,-82.1044,1.46,35.76,1111122 
SCCF RECON,ioos:station:SCCF:56:1,2017-05-11T12:00:00Z,26.4645,-82.1044,1.42,35.8,1111122 
SCCF RECON,ioos:station:SCCF:56:1,2017-05-11T13:00:00Z,26.4645,-82.1044,1.43,35.82,1111122 
SCCF RECON,ioos:station:SCCF:56:1,2017-05-11T14:00:00Z,26.4645,-82.1044,1.51,35.77,1111122 
SCCF RECON,ioos:station:SCCF:56:1,2017-05-11T15:00:00Z,26.4645,-82.1044,1.65,35.74,1111122 
SCCF RECON,ioos:station:SCCF:56:1,2017-05-11T16:00:00Z,26.4645,-82.1044,1.77,35.61,1111122 
SCCF RECON,ioos:station:SCCF:56:1,2017-05-11T17:00:00Z,26.4645,-82.1044,1.85,35.54,1111122 
SCCF RECON,ioos:station:SCCF:56:1,2017-05-11T18:00:00Z,26.4645,-82.1044,1.85,35.52,1111122 
SCCF RECON,ioos:station:SCCF:56:1,2017-05-11T19:00:00Z,26.4645,-82.1044,1.76,35.51,1111122 
SCCF RECON,ioos:station:SCCF:56:1,2017-05-11T20:00:00Z,26.4645,-82.1044,1.63,35.59,1111122 
SCCF RECON,ioos:station:SCCF:56:1,2017-05-11T21:00:00Z,26.4645,-82.1044,1.49,35.69,1111122 
SCCF RECON,ioos:station:SCCF:56:1,2017-05-11T22:00:00Z,26.4645,-82.1044,1.371,35.81,1111122 
SCCF RECON,ioos:station:SCCF:56:1,2017-05-11T23:00:00Z,26.4645,-82.1044,1.26,35.89,1111122 
SCCF RECON,ioos:station:SCCF:56:1,2017-05-12T00:00:00Z,26.4645,-82.1044,1.17,35.97,1111122 
SCCF RECON,ioos:station:SCCF:56:1,2017-05-12T01:00:00Z,26.4645,-82.1044,1.091,36.05,1111122 
SCCF RECON,ioos:station:SCCF:56:1,2017-05-12T02:00:00Z,26.4645,-82.1044,1.09,36.09,1111122 
SCCF RECON,ioos:station:SCCF:56:1,2017-05-12T03:00:00Z,26.4645,-82.1044,1.21,36.02,1111122 
SCCF RECON,ioos:station:SCCF:56:1,2017-05-12T04:00:00Z,26.4645,-82.1044,1.348,35.86,1111122 
SCCF RECON,ioos:station:SCCF:56:1,2017-05-12T05:00:00Z,26.4645,-82.1044,1.47,35.96,1111122 
SCCF RECON,ioos:station:SCCF:56:1,2017-05-12T06:00:00Z,26.4645,-82.1044,1.58,35.93,1111122 
SCCF RECON,ioos:station:SCCF:56:1,2017-05-12T07:00:00Z,26.4645,-82.1044,1.65,35.65,1111122 
SCCF RECON,ioos:station:SCCF:56:1,2017-05-12T08:00:00Z,26.4645,-82.1044,1.66,35.59,1111122 
SCCF RECON,ioos:station:SCCF:56:1,2017-05-12T09:00:00Z,26.4645,-82.1044,1.61,35.73,1111122 
SCCF RECON,ioos:station:SCCF:56:1,2017-05-12T10:00:00Z,26.4645,-82.1044,1.55,35.63,1111122 
SCCF RECON,ioos:station:SCCF:56:1,2017-05-12T11:00:00Z,26.4645,-82.1044,1.5,35.65,1111122 
SCCF RECON,ioos:station:SCCF:56:1,2017-05-12T12:00:00Z,26.4645,-82.1044,1.47,35.71,1111122 
SCCF RECON,ioos:station:SCCF:56:1,2017-05-12T13:00:00Z,26.4645,-82.1044,1.47,35.74,1111122 
SCCF RECON,ioos:station:SCCF:56:1,2017-05-12T14:00:00Z,26.4645,-82.1044,1.53,35.72,1111122 
SCCF RECON,ioos:station:SCCF:56:1,2017-05-12T15:00:00Z,26.4645,-82.1044,1.658,35.62,1111122 
SCCF RECON,ioos:station:SCCF:56:1,2017-05-12T16:00:00Z,26.4645,-82.1044,1.78,35.64,1111122 
SCCF RECON,ioos:station:SCCF:56:1,2017-05-12T17:00:00Z,26.4645,-82.1044,1.86,35.55,1111122 
SCCF RECON,ioos:station:SCCF:56:1,2017-05-12T18:00:00Z,26.4645,-82.1044,1.9,35.5,1111122 
SCCF RECON,ioos:station:SCCF:56:1,2017-05-12T19:00:00Z,26.4645,-82.1044,1.873,35.49,1111122 
SCCF RECON,ioos:station:SCCF:56:1,2017-05-12T20:00:00Z,26.4645,-82.1044,1.779,35.49,1111122 
SCCF RECON,ioos:station:SCCF:56:1,2017-05-12T21:00:00Z,26.4645,-82.1044,1.63,35.56,1111122 
SCCF RECON,ioos:station:SCCF:56:1,2017-05-12T22:00:00Z,26.4645,-82.1044,1.496,35.66,1111122 
SCCF RECON,ioos:station:SCCF:56:1,2017-05-12T23:00:00Z,26.4645,-82.1044,1.374,35.76,1111122 
SCCF RECON,ioos:station:SCCF:56:1,2017-05-13T00:00:00Z,26.4645,-82.1044,1.26,35.88,1111122 
SCCF RECON,ioos:station:SCCF:56:1,2017-05-13T01:00:00Z,26.4645,-82.1044,1.16,35.97,1111122 
SCCF RECON,ioos:station:SCCF:56:1,2017-05-13T02:00:00Z,26.4645,-82.1044,1.1,36.04,1111122 
SCCF RECON,ioos:station:SCCF:56:1,2017-05-13T03:00:00Z,26.4645,-82.1044,1.15,36.06,1111122 
SCCF RECON,ioos:station:SCCF:56:1,2017-05-13T04:00:00Z,26.4645,-82.1044,1.32,35.78,1111122 
SCCF RECON,ioos:station:SCCF:56:1,2017-05-13T05:00:00Z,26.4645,-82.1044,1.47,35.71,1111122 
SCCF RECON,ioos:station:SCCF:56:1,2017-05-13T06:00:00Z,26.4645,-82.1044,1.58,35.67,1111122 
SCCF RECON,ioos:station:SCCF:56:1,2017-05-13T07:00:00Z,26.4645,-82.1044,1.67,35.57,1111122 
SCCF RECON,ioos:station:SCCF:56:1,2017-05-13T08:00:00Z,26.4645,-82.1044,1.72,35.57,1111122 
SCCF RECON,ioos:station:SCCF:56:1,2017-05-13T09:00:00Z,26.4645,-82.1044,1.69,35.54,1111122 
SCCF RECON,ioos:station:SCCF:56:1,2017-05-13T10:00:00Z,26.4645,-82.1044,1.63,35.57,1111122 
SCCF RECON,ioos:station:SCCF:56:1,2017-05-13T11:00:00Z,26.4645,-82.1044,1.58,35.58,1111122 
SCCF RECON,ioos:station:SCCF:56:1,2017-05-13T12:00:00Z,26.4645,-82.1044,1.54,35.62,1111122 
SCCF RECON,ioos:station:SCCF:56:1,2017-05-13T13:00:00Z,26.4645,-82.1044,1.54,35.65,1111122 
SCCF RECON,ioos:station:SCCF:56:1,2017-05-13T14:00:00Z,26.4645,-82.1044,1.59,35.62,1111122 
SCCF RECON,ioos:station:SCCF:56:1,2017-05-13T15:00:00Z,26.4645,-82.1044,1.67,35.6,1111122 
SCCF RECON,ioos:station:SCCF:56:1,2017-05-13T16:00:00Z,26.4645,-82.1044,1.77,35.5,1111122 
SCCF RECON,ioos:station:SCCF:56:1,2017-05-13T17:00:00Z,26.4645,-82.1044,1.852,35.46,1111122 
SCCF RECON,ioos:station:SCCF:56:1,2017-05-13T18:00:00Z,26.4645,-82.1044,1.899,35.4,1111122 
SCCF RECON,ioos:station:SCCF:56:1,2017-05-13T19:00:00Z,26.4645,-82.1044,1.89,35.42,1111122 
SCCF RECON,ioos:station:SCCF:56:1,2017-05-13T20:00:00Z,26.4645,-82.1044,1.859,35.39,1111122 
SCCF RECON,ioos:station:SCCF:56:1,2017-05-13T21:00:00Z,26.4645,-82.1044,1.779,35.43,1111122 
SCCF RECON,ioos:station:SCCF:56:1,2017-05-13T22:00:00Z,26.4645,-82.1044,1.65,35.53,1111122 
SCCF RECON,ioos:station:SCCF:56:1,2017-05-13T23:00:00Z,26.4645,-82.1044,1.504,35.67,1111122 
SCCF RECON,ioos:station:SCCF:56:1,2017-05-14T00:00:00Z,26.4645,-82.1044,1.4,35.78,1111122 
SCCF RECON,ioos:station:SCCF:56:1,2017-05-14T01:00:00Z,26.4645,-82.1044,1.28,35.86,1111122 
SCCF RECON,ioos:station:SCCF:56:1,2017-05-14T02:00:00Z,26.4645,-82.1044,1.19,35.92,1111122 
SCCF RECON,ioos:station:SCCF:56:1,2017-05-14T03:00:00Z,26.4645,-82.1044,1.174,36.01,1111122 
SCCF RECON,ioos:station:SCCF:56:1,2017-05-14T04:00:00Z,26.4645,-82.1044,1.28,35.92,1111122 
SCCF RECON,ioos:station:SCCF:56:1,2017-05-14T05:00:00Z,26.4645,-82.1044,1.424,35.49,1111122 
SCCF RECON,ioos:station:SCCF:56:1,2017-05-14T06:00:00Z,26.4645,-82.1044,1.56,35.53,1111122 
SCCF RECON,ioos:station:SCCF:56:1,2017-05-14T07:00:00Z,26.4645,-82.1044,1.656,35.58,1111122 
SCCF RECON,ioos:station:SCCF:56:1,2017-05-14T08:00:00Z,26.4645,-82.1044,1.71,35.56,1111122 
SCCF RECON,ioos:station:SCCF:56:1,2017-05-14T09:00:00Z,26.4645,-82.1044,1.712,35.54,1111122 
SCCF RECON,ioos:station:SCCF:56:1,2017-05-14T10:00:00Z,26.4645,-82.1044,1.68,35.52,1111122 
SCCF RECON,ioos:station:SCCF:56:1,2017-05-14T11:00:00Z,26.4645,-82.1044,1.6,35.54,1111122 
SCCF RECON,ioos:station:SCCF:56:1,2017-05-14T12:00:00Z,26.4645,-82.1044,1.56,35.59,1111122 
SCCF RECON,ioos:station:SCCF:56:1,2017-05-14T13:00:00Z,26.4645,-82.1044,1.56,35.58,1111122 
SCCF RECON,ioos:station:SCCF:56:1,2017-05-14T14:00:00Z,26.4645,-82.1044,1.55,35.59,1111122 
SCCF RECON,ioos:station:SCCF:56:1,2017-05-14T15:00:00Z,26.4645,-82.1044,1.566,35.59,1111122 
SCCF RECON,ioos:station:SCCF:56:1,2017-05-14T16:00:00Z,26.4645,-82.1044,1.64,35.59,1111122 
SCCF RECON,ioos:station:SCCF:56:1,2017-05-14T17:00:00Z,26.4645,-82.1044,1.72,35.51,1111122 
SCCF RECON,ioos:station:SCCF:56:1,2017-05-14T18:00:00Z,26.4645,-82.1044,1.775,35.57,1111122 
SCCF RECON,ioos:station:SCCF:56:1,2017-05-14T19:00:00Z,26.4645,-82.1044,1.81,35.64,1111122 
SCCF RECON,ioos:station:SCCF:56:1,2017-05-14T20:00:00Z,26.4645,-82.1044,1.79,35.64,1111122 
SCCF RECON,ioos:station:SCCF:56:1,2017-05-14T21:00:00Z,26.4645,-82.1044,1.684,35.6,1111122 
SCCF RECON,ioos:station:SCCF:56:1,2017-05-14T22:00:00Z,26.4645,-82.1044,1.551,35.62,1111122 
SCCF RECON,ioos:station:SCCF:56:1,2017-05-14T23:00:00Z,26.4645,-82.1044,1.432,35.73,1111122 
SCCF RECON,ioos:station:SCCF:56:1,2017-05-15T00:00:00Z,26.4645,-82.1044,1.325,35.8,1111122 
SCCF RECON,ioos:station:SCCF:56:1,2017-05-15T01:00:00Z,26.4645,-82.1044,1.22,35.86,1111122 
SCCF RECON,ioos:station:SCCF:56:1,2017-05-15T02:00:00Z,26.4645,-82.1044,1.13,35.9,1111122 
SCCF RECON,ioos:station:SCCF:56:1,2017-05-15T03:00:00Z,26.4645,-82.1044,1.086,35.93,1111122 
SCCF RECON,ioos:station:SCCF:56:1,2017-05-15T04:00:00Z,26.4645,-82.1044,1.12,35.94,1111122 
SCCF RECON,ioos:station:SCCF:56:1,2017-05-15T05:00:00Z,26.4645,-82.1044,1.232,35.89,1111122 
SCCF RECON,ioos:station:SCCF:56:1,2017-05-15T06:00:00Z,26.4645,-82.1044,1.361,35.71,1111122 
SCCF RECON,ioos:station:SCCF:56:1,2017-05-15T07:00:00Z,26.4645,-82.1044,1.48,35.74,1111122 
SCCF RECON,ioos:station:SCCF:56:1,2017-05-15T08:00:00Z,26.4645,-82.1044,1.58,35.75,1111122 
SCCF RECON,ioos:station:SCCF:56:1,2017-05-15T09:00:00Z,26.4645,-82.1044,1.637,35.73,1111122 
SCCF RECON,ioos:station:SCCF:56:1,2017-05-15T10:00:00Z,26.4645,-82.1044,1.64,35.71,1111122 
SCCF RECON,ioos:station:SCCF:56:1,2017-05-15T11:00:00Z,26.4645,-82.1044,1.6,35.74,1111122 
SCCF RECON,ioos:station:SCCF:56:1,2017-05-15T12:00:00Z,26.4645,-82.1044,1.55,35.72,1111122 
SCCF RECON,ioos:station:SCCF:56:1,2017-05-15T13:00:00Z,26.4645,-82.1044,1.52,35.74,1111122 
SCCF RECON,ioos:station:SCCF:56:1,2017-05-15T14:00:00Z,26.4645,-82.1044,1.51,35.77,1111122 
SCCF RECON,ioos:station:SCCF:56:1,2017-05-15T15:00:00Z,26.4645,-82.1044,1.546,35.75,1111122 
SCCF RECON,ioos:station:SCCF:56:1,2017-05-15T16:00:00Z,26.4645,-82.1044,1.617,35.76,1111122 
SCCF RECON,ioos:station:SCCF:56:1,2017-05-15T17:00:00Z,26.4645,-82.1044,1.697,35.76,1111122 
SCCF RECON,ioos:station:SCCF:56:1,2017-05-15T18:00:00Z,26.4645,-82.1044,1.76,35.76,1111122 
SCCF RECON,ioos:station:SCCF:56:1,2017-05-15T19:00:00Z,26.4645,-82.1044,1.79,35.69,1111122 
SCCF RECON,ioos:station:SCCF:56:1,2017-05-15T20:00:00Z,26.4645,-82.1044,1.801,35.69,1111122 
SCCF RECON,ioos:station:SCCF:56:1,2017-05-15T21:00:00Z,26.4645,-82.1044,1.75,35.61,1111122 
SCCF RECON,ioos:station:SCCF:56:1,2017-05-15T22:00:00Z,26.4645,-82.1044,1.66,35.63,1111122 
SCCF RECON,ioos:station:SCCF:56:1,2017-05-15T23:00:00Z,26.4645,-82.1044,1.55,35.72,1111122 
SCCF RECON,ioos:station:SCCF:56:1,2017-05-16T00:00:00Z,26.4645,-82.1044,1.45,35.81,1111122 
SCCF RECON,ioos:station:SCCF:56:1,2017-05-16T01:00:00Z,26.4645,-82.1044,1.35,35.91,1111122 
SCCF RECON,ioos:station:SCCF:56:1,2017-05-16T02:00:00Z,26.4645,-82.1044,1.25,35.97,1111122 
SCCF RECON,ioos:station:SCCF:56:1,2017-05-16T03:00:00Z,26.4645,-82.1044,1.173,36.03,1111122 
SCCF RECON,ioos:station:SCCF:56:1,2017-05-16T04:00:00Z,26.4645,-82.1044,1.136,36.07,1111122 
SCCF RECON,ioos:station:SCCF:56:1,2017-05-16T05:00:00Z,26.4645,-82.1044,1.199,36.08,1111122 
SCCF RECON,ioos:station:SCCF:56:1,2017-05-16T06:00:00Z,26.4645,-82.1044,1.31,35.63,1111122 
SCCF RECON,ioos:station:SCCF:56:1,2017-05-16T07:00:00Z,26.4645,-82.1044,1.4,35.68,1111122 
SCCF RECON,ioos:station:SCCF:56:1,2017-05-16T08:00:00Z,26.4645,-82.1044,1.5,35.55,1111122 
SCCF RECON,ioos:station:SCCF:56:1,2017-05-16T09:00:00Z,26.4645,-82.1044,1.58,35.49,1111122 
SCCF RECON,ioos:station:SCCF:56:1,2017-05-16T10:00:00Z,26.4645,-82.1044,1.64,35.42,1111122 
SCCF RECON,ioos:station:SCCF:56:1,2017-05-16T11:00:00Z,26.4645,-82.1044,1.679,35.42,1111122 
SCCF RECON,ioos:station:SCCF:56:1,2017-05-16T12:00:00Z,26.4645,-82.1044,1.66,35.55,1111122 
SCCF RECON,ioos:station:SCCF:56:1,2017-05-16T13:00:00Z,26.4645,-82.1044,1.611,35.5,1111122 
SCCF RECON,ioos:station:SCCF:56:1,2017-05-16T14:00:00Z,26.4645,-82.1044,1.58,35.52,1111122 
SCCF RECON,ioos:station:SCCF:56:1,2017-05-16T15:00:00Z,26.4645,-82.1044,1.57,35.55,1111122 
SCCF RECON,ioos:station:SCCF:56:1,2017-05-16T16:00:00Z,26.4645,-82.1044,1.62,35.53,1111122 
SCCF RECON,ioos:station:SCCF:56:1,2017-05-16T17:00:00Z,26.4645,-82.1044,1.671,35.52,1111122 
SCCF RECON,ioos:station:SCCF:56:1,2017-05-16T18:00:00Z,26.4645,-82.1044,1.71,35.44,1111122 
SCCF RECON,ioos:station:SCCF:56:1,2017-05-16T19:00:00Z,26.4645,-82.1044,1.76,35.34,1111122 